This is the latest recevied weather packets stored in our database for station/object G0TRT-13. If no packets are shown the sender has not sent any weather packets the latest 10 day(s).
| Time | Temp. | Humidity | Pressure | Rain* | Wind** | Luminosity | Snow |
|---|---|---|---|---|---|---|---|
| 1777825087 | 17.22° C | 72% | 1008.9 hPa | 0 mm | - | - | - |
| 1777824785 | 17.22° C | 72% | 1009 hPa | 0 mm | - | - | - |
| 1777824485 | 17.22° C | 72% | 1009 hPa | 0 mm | - | - | - |
| 1777824186 | 17.22° C | 72% | 1008.9 hPa | 0 mm | - | - | - |
| 1777823885 | 17.22° C | 71% | 1008.9 hPa | 0 mm | - | - | - |
| 1777823583 | 17.22° C | 70% | 1009 hPa | 0 mm | - | - | - |
| 1777823282 | 17.22° C | 71% | 1008.9 hPa | 0 mm | - | - | - |
| 1777822982 | 17.78° C | 69% | 1009 hPa | 0 mm | - | - | - |
| 1777822683 | 18.33° C | 71% | 1009 hPa | 0 mm | - | - | - |
| 1777822376 | 17.78° C | 72% | 1009.1 hPa | 0 mm | - | - | - |
| 1777822077 | 17.78° C | 71% | 1009.1 hPa | 0 mm | - | - | - |
| 1777821774 | 17.78° C | 69% | 1009.1 hPa | 0 mm | - | - | - |
| 1777821474 | 17.78° C | 71% | 1009.2 hPa | 0 mm | - | - | - |
| 1777821174 | 17.22° C | 74% | 1009.3 hPa | 0 mm | - | - | - |
| 1777820873 | 16.67° C | 75% | 1009.3 hPa | 0 mm | - | - | - |
| 1777820572 | 16.67° C | 75% | 1009.2 hPa | 0 mm | - | - | - |
| 1777820272 | 16.67° C | 75% | 1009.3 hPa | 0 mm | - | - | - |
| 1777819971 | 16.67° C | 74% | 1009.2 hPa | 0 mm | - | - | - |
| 1777819671 | 16.67° C | 75% | 1009.2 hPa | 0 mm | - | - | - |
| 1777819371 | 16.67° C | 75% | 1009.4 hPa | 0 mm | - | - | - |
| 1777819070 | 16.67° C | 74% | 1009.3 hPa | 0 mm | - | - | - |
| 1777818773 | 17.22° C | 72% | 1009.4 hPa | 0 mm | - | - | - |
| 1777818470 | 17.22° C | 73% | 1009.4 hPa | 0 mm | - | - | - |
| 1777818171 | 17.22° C | 71% | 1009.3 hPa | 0 mm | - | - | - |
| 1777817870 | 17.78° C | 73% | 1009.4 hPa | 0 mm | - | - | - |
* Rain latest hour (hover to see other rain measurements)
** Current wind speed in m/s (hover to see current wind gust speed)